Zurück zum Katalog

CZ-6A DEB

AktivPO
NORAD 60836·DEBRIS·🇨🇳 China

Gestartet Aug 6, 2024 von Taiyuan Satellite Launch Center

Loading…

Nächste Überflüge (nächste 24 Stunden)

TLE

AktuellSource: Space-Track

Epoche: Sep 13, 2026, 23:20 UTC

1 60836U 24140HP  26256.97251881  .00003764  00000-0  63093-3 0  9990
2 60836  88.9859 257.6684 0099482 283.0901  75.9226 14.66320189110503

Verfolge CZ-6A DEB in Echtzeit mit AllMySat

Download on the App Store